GFSGBSN_prec_precacc12_207.txt.gz
Total_Precipitation_Accumulation
0.00 0.00 0.00 0.00 0.00 0.00 0.00 0.00 0.00 0.00 0.00 0.00 0.00 0.00 0.00 0.00 0.00 0.00 0.00 0.00 0.00 0.00 0.00 0.00 0.00 0.00 0.00 0.00 0.00 0.00 0.00 0.00 0.00 0.00 0.00 0.00 0.00 0.00 0.00 0.00 0.00 0.00 0.00 0.00 0.00 0.00 0.00
0.00 0.00 0.00 0.00 0.00 0.00 0.00 0.00 0.00 0.00 0.00 0.00 0.00 0.00 0.00 0.00 0.00 0.00 0.00 0.00 0.00 0.00 0.00 0.00 0.00 0.00 0.00 0.00 0.00 0.00 0.00 0.00 0.00 0.00 0.00 0.00 0.00 0.00 0.00 0.00 0.00 0.00 0.00 0.00 0.00 0.00 0.00
0.00 0.00 0.00 0.00 0.00 0.00 0.00 0.00 0.00 0.00 0.00 0.00 0.00 0.00 0.00 0.00 0.00 0.00 0.00 0.00 0.00 0.00 0.00 0.00 0.00 0.00 0.00 0.00 0.00 0.00 0.00 0.00 0.00 0.00 0.00 0.00 0.00 0.00 0.00 0.00 0.00 0.00 0.00 0.00 0.00 0.00 0.00
0.00 0.00 0.00 0.00 0.00 0.00 0.00 0.00 0.00 0.00 0.00 0.00 0.00 0.00 0.00 0.00 0.00 0.00 0.00 0.00 0.00 0.00 0.00 0.00 0.00 0.00 0.00 0.00 0.00 0.00 0.00 0.00 0.00 0.00 0.00 0.00 0.00 0.00 0.00 0.00 0.00 0.00 0.00 0.00 0.00 0.00 0.00
0.00 0.00 0.00 0.00 0.00 0.00 0.00 0.00 0.00 0.00 0.00 0.00 0.00 0.00 0.00 0.00 0.00 0.00 0.00 0.00 0.00 0.00 0.00 0.00 0.00 0.00 0.00 0.00 0.00 0.00 0.00 0.00 0.00 0.00 0.00 0.00 0.00 0.00 0.00 0.00 0.00 0.00 0.00 0.00 0.00 0.00 0.00
0.00 0.00 0.00 0.00 0.00 0.00 0.00 0.00 0.00 0.00 0.00 0.00 0.00 0.00 0.00 0.00 0.00 0.00 0.00 0.00 0.00 0.00 0.00 0.00 0.00 0.00 0.00 0.00 0.00 0.00 0.00 0.00 0.00 0.00 0.00 0.00 0.00 0.00 0.00 0.00 0.00 0.00 0.00 0.00 0.00 0.00 0.00
0.00 0.00 0.00 0.00 0.00 0.00 0.00 0.00 0.00 0.00 0.00 0.00 0.00 0.00 0.00 0.00 0.00 0.00 0.00 0.00 0.00 0.00 0.00 0.00 0.00 0.00 0.00 0.00 0.00 0.00 0.00 0.00 0.00 0.00 0.00 0.00 0.00 0.00 0.00 0.00 0.00 0.00 0.00 0.00 0.00 0.00 0.00
0.00 0.00 0.00 0.00 0.00 0.00 0.00 0.00 0.00 0.00 0.00 0.00 0.00 0.00 0.00 0.00 0.00 0.00 0.00 0.00 0.00 0.00 0.00 0.00 0.00 0.00 0.00 0.00 0.00 0.00 0.00 0.00 0.00 0.00 0.00 0.00 0.00 0.00 0.00 0.00 0.00 0.00 0.00 0.00 0.00 0.00 0.00
0.00 0.00 0.00 0.00 0.00 0.00 0.00 0.00 0.00 0.00 0.00 0.00 0.00 0.00 0.00 0.00 0.00 0.00 0.00 0.00 0.00 0.00 0.00 0.00 0.00 0.00 0.00 0.00 0.00 0.00 0.00 0.00 0.00 0.00 0.00 0.00 0.00 0.00 0.00 0.00 0.00 0.00 0.00 0.00 0.00 0.00 0.00
0.00 0.00 0.00 0.00 0.00 0.00 0.00 0.00 0.00 0.00 0.00 0.00 0.00 0.00 0.00 0.00 0.00 0.00 0.00 0.00 0.00 0.00 0.00 0.00 0.00 0.00 0.00 0.00 0.00 0.00 0.00 0.00 0.00 0.00 0.00 0.00 0.00 0.00 0.00 0.00 0.00 0.00 0.00 0.00 0.00 0.00 0.00
0.00 0.00 0.00 0.00 0.00 0.00 0.00 0.00 0.00 0.00 0.00 0.00 0.00 0.00 0.00 0.00 0.00 0.00 0.00 0.00 0.00 0.00 0.00 0.00 0.00 0.00 0.00 0.00 0.00 0.00 0.00 0.00 0.00 0.00 0.00 0.00 0.00 0.00 0.00 0.00 0.00 0.00 0.00 0.00 0.00 0.00 0.00
0.00 0.00 0.00 0.00 0.00 0.00 0.00 0.00 0.00 0.00 0.00 0.00 0.00 0.00 0.00 0.00 0.00 0.00 0.00 0.00 0.00 0.01 0.00 0.00 0.00 0.00 0.00 0.00 0.00 0.00 0.00 0.00 0.00 0.00 0.00 0.00 0.00 0.00 0.00 0.00 0.00 0.00 0.00 0.00 0.00 0.00 0.00
0.00 0.01 0.01 0.01 0.00 0.00 0.00 0.00 0.00 0.00 0.00 0.00 0.00 0.00 0.00 0.00 0.00 0.00 0.00 0.00 0.01 0.02 0.00 0.00 0.00 0.00 0.00 0.00 0.00 0.00 0.00 0.00 0.00 0.00 0.00 0.00 0.00 0.00 0.00 0.00 0.00 0.00 0.01 0.04 0.04 0.01 0.00
0.03 0.03 0.03 0.02 0.02 0.01 0.01 0.01 0.01 0.01 0.01 0.02 0.04 0.08 0.03 0.00 0.00 0.00 0.00 0.03 0.07 0.01 0.00 0.00 0.00 0.00 0.00 0.00 0.00 0.00 0.00 0.00 0.00 0.00 0.00 0.00 0.00 0.00 0.00 0.00 0.00 0.01 0.04 0.09 0.18 0.01 0.00
0.03 0.02 0.02 0.02 0.02 0.01 0.01 0.02 0.02 0.02 0.04 0.10 0.29 0.25 0.09 0.03 0.03 0.04 0.08 0.14 0.03 0.00 0.00 0.00 0.00 0.00 0.00 0.00 0.00 0.00 0.00 0.00 0.00 0.00 0.00 0.01 0.00 0.00 0.00 0.00 0.00 0.01 0.00 0.01 0.18 0.08 0.07
0.04 0.04 0.05 0.05 0.05 0.05 0.05 0.05 0.06 0.08 0.16 0.33 0.44 0.38 0.24 0.12 0.21 0.36 0.44 0.25 0.01 0.00 0.00 0.00 0.02 0.01 0.00 0.00 0.00 0.00 0.00 0.00 0.00 0.00 0.00 0.01 0.00 0.00 0.00 0.00 0.00 0.00 0.00 0.01 0.16 0.24 0.12
0.14 0.10 0.12 0.13 0.13 0.12 0.13 0.13 0.16 0.25 0.52 1.02 1.23 1.15 0.56 0.18 0.51 0.88 0.51 0.09 0.00 0.00 0.00 0.04 0.07 0.09 0.08 0.04 0.03 0.02 0.03 0.01 0.00 0.00 0.02 0.04 0.03 0.00 0.00 0.00 0.00 0.00 0.00 0.02 0.05 0.06 0.19
0.26 0.36 0.26 0.21 0.23 0.29 0.35 0.41 0.56 0.94 1.64 1.94 1.76 1.52 0.90 0.32 0.64 0.75 0.26 0.04 0.07 0.09 0.09 0.13 0.14 0.11 0.11 0.09 0.11 0.06 0.03 0.01 0.00 0.00 0.01 0.01 0.01 0.00 0.00 0.00 0.00 0.00 0.01 0.03 0.16 0.09 0.17
0.59 0.43 0.56 0.51 0.39 0.32 0.34 0.46 0.70 1.06 1.17 1.44 1.73 1.36 1.02 0.61 0.55 0.41 0.22 0.18 0.18 0.18 0.12 0.13 0.15 0.15 0.12 0.15 0.16 0.08 0.03 0.00 0.00 0.00 0.00 0.00 0.00 0.00 0.00 0.00 0.00 0.00 0.00 0.00 0.00 0.01 0.01
1.18 0.95 0.78 0.86 0.84 0.83 0.81 0.79 0.97 1.24 1.43 1.28 1.45 1.27 1.11 0.74 0.39 0.20 0.27 0.36 0.27 0.16 0.19 0.20 0.21 0.17 0.13 0.10 0.07 0.10 0.05 0.01 0.00 0.00 0.00 0.00 0.00 0.00 0.00 0.00 0.00 0.00 0.00 0.00 0.01 0.04 0.01
1.09 1.12 1.05 0.93 0.94 1.02 1.13 1.27 1.46 1.54 1.41 1.24 1.33 1.11 0.65 0.58 0.27 0.22 0.31 0.47 0.28 0.21 0.27 0.27 0.28 0.10 0.06 0.14 0.07 0.06 0.04 0.06 0.01 0.00 0.00 0.00 0.00 0.00 0.00 0.00 0.00 0.00 0.00 0.00 0.00 0.00 0.01
0.96 0.94 0.90 0.84 0.72 0.73 0.70 0.80 0.85 0.91 1.04 1.10 1.03 0.71 0.53 0.47 0.33 0.46 0.59 0.43 0.24 0.25 0.29 0.24 0.15 0.07 0.09 0.09 0.02 0.03 0.03 0.07 0.03 0.00 0.00 0.00 0.00 0.00 0.00 0.00 0.00 0.00 0.00 0.00 0.00 0.00 0.02
0.88 0.98 0.91 0.72 0.54 0.44 0.43 0.47 0.49 0.49 0.56 0.65 0.49 0.45 0.54 0.70 0.49 0.44 0.37 0.20 0.25 0.24 0.24 0.15 0.08 0.15 0.07 0.04 0.03 0.01 0.00 0.00 0.00 0.00 0.01 0.01 0.00 0.01 0.01 0.00 0.00 0.00 0.00 0.00 0.02 0.02 0.08
0.57 0.55 0.53 0.51 0.50 0.49 0.49 0.48 0.44 0.46 0.45 0.37 0.41 0.47 0.50 0.48 0.31 0.23 0.17 0.15 0.18 0.17 0.15 0.08 0.04 0.08 0.04 0.00 0.00 0.00 0.00 0.00 0.00 0.00 0.00 0.00 0.00 0.03 0.02 0.01 0.03 0.00 0.00 0.02 0.06 0.02 0.04
0.58 0.56 0.43 0.33 0.29 0.26 0.21 0.21 0.18 0.17 0.14 0.11 0.11 0.12 0.13 0.13 0.08 0.08 0.07 0.06 0.10 0.14 0.10 0.04 0.01 0.01 0.00 0.00 0.00 0.00 0.00 0.00 0.00 0.00 0.00 0.00 0.00 0.02 0.03 0.04 0.02 0.01 0.03 0.03 0.03 0.03 0.16
0.36 0.27 0.28 0.24 0.15 0.12 0.11 0.08 0.05 0.05 0.03 0.01 0.01 0.00 0.01 0.02 0.03 0.02 0.03 0.03 0.03 0.05 0.03 0.00 0.00 0.00 0.00 0.00 0.00 0.00 0.00 0.00 0.00 0.00 0.00 0.01 0.03 0.07 0.04 0.07 0.04 0.01 0.03 0.03 0.01 0.13 0.23
0.25 0.21 0.14 0.10 0.07 0.06 0.03 0.01 0.01 0.01 0.00 0.00 0.00 0.00 0.00 0.00 0.00 0.00 0.01 0.01 0.00 0.00 0.00 0.00 0.00 0.00 0.00 0.00 0.00 0.00 0.00 0.00 0.00 0.00 0.00 0.01 0.05 0.12 0.14 0.20 0.14 0.05 0.02 0.01 0.11 0.17 0.13
0.13 0.11 0.12 0.08 0.02 0.01 0.00 0.00 0.00 0.00 0.00 0.00 0.00 0.00 0.00 0.00 0.00 0.00 0.00 0.00 0.00 0.00 0.00 0.00 0.00 0.00 0.00 0.00 0.01 0.01 0.01 0.00 0.01 0.01 0.01 0.02 0.02 0.03 0.06 0.11 0.08 0.03 0.02 0.10 0.13 0.08 0.11
0.12 0.09 0.06 0.04 0.02 0.01 0.01 0.01 0.00 0.00 0.00 0.00 0.00 0.00 0.00 0.00 0.00 0.00 0.00 0.00 0.00 0.00 0.00 0.00 0.00 0.00 0.00 0.01 0.04 0.06 0.06 0.04 0.03 0.01 0.00 0.01 0.02 0.04 0.06 0.04 0.01 0.02 0.08 0.10 0.23 0.35 0.24

GFSGBSN_prec_precacc12_210.txt.gz
Total_Precipitation_Accumulation
0.00 0.00 0.00 0.00 0.00 0.00 0.00 0.00 0.00 0.00 0.00 0.00 0.00 0.00 0.00 0.00 0.00 0.00 0.00 0.00 0.00 0.00 0.00 0.00 0.00 0.00 0.00 0.00 0.00 0.00 0.00 0.00 0.00 0.00 0.00 0.00 0.00 0.00 0.00 0.00 0.00 0.00 0.00 0.00 0.00 0.00 0.00
0.00 0.00 0.00 0.00 0.00 0.00 0.00 0.00 0.00 0.00 0.00 0.00 0.00 0.00 0.00 0.00 0.00 0.00 0.00 0.00 0.00 0.00 0.00 0.00 0.00 0.00 0.00 0.00 0.00 0.00 0.00 0.00 0.00 0.00 0.00 0.00 0.00 0.00 0.00 0.00 0.00 0.00 0.00 0.00 0.00 0.00 0.00
0.00 0.00 0.00 0.00 0.00 0.00 0.00 0.00 0.00 0.00 0.00 0.00 0.00 0.00 0.00 0.00 0.00 0.00 0.00 0.00 0.00 0.00 0.00 0.00 0.00 0.00 0.00 0.00 0.00 0.00 0.00 0.00 0.00 0.00 0.00 0.00 0.00 0.00 0.00 0.00 0.00 0.00 0.00 0.00 0.00 0.00 0.00
0.00 0.00 0.00 0.00 0.00 0.00 0.00 0.00 0.00 0.00 0.00 0.00 0.00 0.00 0.00 0.00 0.00 0.00 0.00 0.00 0.00 0.00 0.00 0.00 0.00 0.00 0.00 0.00 0.00 0.00 0.00 0.00 0.00 0.00 0.00 0.00 0.00 0.00 0.00 0.00 0.00 0.00 0.00 0.00 0.00 0.00 0.00
0.00 0.00 0.00 0.00 0.00 0.00 0.00 0.00 0.00 0.00 0.00 0.00 0.00 0.00 0.00 0.00 0.00 0.00 0.00 0.00 0.00 0.00 0.00 0.00 0.00 0.00 0.00 0.00 0.00 0.00 0.00 0.00 0.00 0.00 0.00 0.00 0.00 0.00 0.00 0.00 0.00 0.00 0.00 0.00 0.00 0.00 0.00
0.00 0.00 0.00 0.00 0.00 0.00 0.00 0.00 0.00 0.00 0.00 0.00 0.00 0.00 0.00 0.00 0.00 0.00 0.00 0.00 0.00 0.00 0.00 0.00 0.00 0.00 0.00 0.00 0.00 0.00 0.00 0.00 0.00 0.00 0.00 0.00 0.00 0.00 0.00 0.00 0.00 0.00 0.00 0.00 0.00 0.00 0.00
0.00 0.00 0.00 0.00 0.00 0.00 0.00 0.00 0.00 0.00 0.00 0.00 0.00 0.00 0.00 0.00 0.00 0.00 0.00 0.00 0.00 0.00 0.00 0.00 0.00 0.00 0.00 0.00 0.00 0.00 0.00 0.00 0.00 0.00 0.00 0.00 0.00 0.00 0.00 0.00 0.00 0.00 0.00 0.00 0.00 0.00 0.00
0.00 0.00 0.00 0.00 0.00 0.00 0.00 0.00 0.00 0.00 0.00 0.00 0.00 0.00 0.00 0.00 0.00 0.00 0.00 0.00 0.00 0.00 0.00 0.00 0.00 0.00 0.00 0.00 0.00 0.00 0.00 0.00 0.00 0.00 0.00 0.00 0.00 0.00 0.00 0.00 0.00 0.00 0.00 0.00 0.00 0.00 0.00
0.00 0.00 0.00 0.00 0.00 0.00 0.00 0.00 0.00 0.00 0.00 0.00 0.00 0.00 0.00 0.00 0.00 0.00 0.00 0.00 0.00 0.00 0.00 0.00 0.00 0.00 0.00 0.00 0.00 0.00 0.00 0.00 0.00 0.00 0.00 0.00 0.00 0.00 0.00 0.00 0.00 0.00 0.00 0.00 0.00 0.00 0.00
0.00 0.00 0.00 0.00 0.00 0.00 0.00 0.00 0.00 0.00 0.00 0.00 0.00 0.00 0.00 0.00 0.00 0.00 0.00 0.00 0.00 0.00 0.00 0.00 0.00 0.00 0.00 0.00 0.00 0.00 0.00 0.00 0.00 0.00 0.00 0.00 0.00 0.00 0.00 0.00 0.00 0.00 0.00 0.00 0.00 0.00 0.00
0.00 0.00 0.00 0.00 0.00 0.00 0.00 0.00 0.00 0.00 0.00 0.00 0.00 0.00 0.00 0.00 0.00 0.00 0.00 0.00 0.00 0.00 0.00 0.00 0.00 0.00 0.00 0.00 0.00 0.00 0.00 0.00 0.00 0.00 0.00 0.00 0.00 0.00 0.00 0.00 0.00 0.00 0.00 0.00 0.00 0.00 0.00
0.00 0.00 0.00 0.00 0.00 0.00 0.00 0.00 0.00 0.00 0.00 0.00 0.00 0.00 0.00 0.00 0.00 0.00 0.00 0.00 0.00 0.00 0.00 0.00 0.00 0.00 0.00 0.00 0.00 0.00 0.00 0.00 0.00 0.00 0.00 0.00 0.00 0.00 0.00 0.00 0.00 0.00 0.00 0.00 0.00 0.00 0.00
0.00 0.00 0.00 0.00 0.00 0.00 0.00 0.00 0.00 0.00 0.00 0.00 0.00 0.00 0.00 0.00 0.00 0.00 0.00 0.00 0.01 0.01 0.00 0.00 0.00 0.00 0.00 0.00 0.00 0.00 0.00 0.00 0.00 0.00 0.00 0.00 0.00 0.00 0.00 0.00 0.00 0.00 0.00 0.01 0.01 0.00 0.00
0.01 0.00 0.00 0.00 0.00 0.01 0.01 0.01 0.01 0.00 0.00 0.01 0.03 0.07 0.03 0.00 0.00 0.00 0.00 0.03 0.06 0.00 0.00 0.00 0.00 0.00 0.00 0.00 0.00 0.00 0.00 0.00 0.00 0.00 0.00 0.00 0.00 0.00 0.00 0.00 0.00 0.00 0.00 0.03 0.09 0.00 0.00
0.02 0.00 0.00 0.00 0.00 0.00 0.00 0.01 0.01 0.02 0.03 0.08 0.26 0.24 0.10 0.03 0.03 0.07 0.17 0.19 0.04 0.00 0.00 0.00 0.00 0.00 0.00 0.00 0.00 0.00 0.00 0.00 0.00 0.00 0.00 0.00 0.00 0.00 0.00 0.00 0.00 0.00 0.00 0.00 0.10 0.03 0.04
0.04 0.02 0.01 0.01 0.01 0.01 0.02 0.04 0.05 0.07 0.15 0.32 0.44 0.38 0.23 0.11 0.21 0.50 0.61 0.30 0.02 0.00 0.00 0.00 0.02 0.01 0.00 0.00 0.00 0.00 0.00 0.00 0.00 0.00 0.00 0.00 0.00 0.00 0.00 0.00 0.00 0.00 0.00 0.01 0.13 0.17 0.07
0.27 0.10 0.06 0.05 0.04 0.04 0.05 0.06 0.10 0.17 0.41 0.87 1.08 1.03 0.48 0.16 0.53 0.99 0.57 0.10 0.00 0.00 0.00 0.04 0.07 0.09 0.07 0.04 0.03 0.02 0.03 0.00 0.00 0.00 0.00 0.00 0.01 0.00 0.00 0.00 0.00 0.00 0.00 0.02 0.05 0.06 0.18
0.44 0.54 0.30 0.11 0.07 0.09 0.14 0.21 0.32 0.68 1.34 1.63 1.54 1.37 0.80 0.28 0.60 0.68 0.22 0.03 0.05 0.07 0.09 0.13 0.13 0.10 0.10 0.09 0.13 0.08 0.03 0.01 0.00 0.00 0.00 0.00 0.00 0.00 0.00 0.00 0.00 0.00 0.00 0.01 0.15 0.10 0.17
0.64 0.48 0.74 0.79 0.38 0.23 0.20 0.28 0.47 0.86 0.96 1.19 1.53 1.20 0.87 0.50 0.45 0.31 0.15 0.12 0.14 0.15 0.11 0.12 0.14 0.13 0.11 0.16 0.22 0.12 0.04 0.00 0.00 0.00 0.00 0.00 0.00 0.00 0.00 0.00 0.00 0.00 0.00 0.00 0.01 0.03 0.03
1.16 0.99 0.84 0.97 1.28 0.99 0.77 0.72 0.86 1.12 1.39 1.38 1.59 1.25 0.98 0.61 0.32 0.14 0.17 0.27 0.23 0.15 0.19 0.21 0.22 0.18 0.17 0.16 0.12 0.14 0.06 0.01 0.00 0.00 0.00 0.00 0.00 0.00 0.00 0.00 0.00 0.00 0.00 0.00 0.03 0.09 0.03
1.01 1.08 1.03 1.00 1.04 1.35 1.37 1.43 1.64 1.85 1.86 1.85 1.95 1.43 0.73 0.51 0.25 0.20 0.34 0.53 0.30 0.21 0.28 0.31 0.33 0.13 0.08 0.22 0.13 0.08 0.04 0.07 0.01 0.00 0.00 0.00 0.01 0.00 0.00 0.00 0.00 0.00 0.00 0.00 0.00 0.00 0.01
0.75 0.85 0.89 0.93 0.90 0.95 0.92 0.99 1.20 1.31 1.49 1.71 1.53 0.95 0.62 0.52 0.38 0.49 0.69 0.49 0.24 0.22 0.30 0.26 0.17 0.08 0.11 0.14 0.03 0.04 0.05 0.09 0.07 0.01 0.01 0.00 0.01 0.00 0.00 0.00 0.00 0.00 0.00 0.00 0.00 0.00 0.02
0.60 0.79 0.85 0.74 0.60 0.51 0.53 0.68 0.75 0.83 0.91 0.90 0.63 0.55 0.64 0.90 0.60 0.46 0.38 0.18 0.24 0.25 0.28 0.17 0.09 0.18 0.11 0.07 0.09 0.08 0.04 0.03 0.03 0.03 0.08 0.10 0.09 0.08 0.03 0.00 0.00 0.00 0.00 0.00 0.00 0.01 0.06
0.32 0.44 0.53 0.50 0.47 0.47 0.52 0.63 0.67 0.72 0.78 0.52 0.49 0.58 0.72 0.70 0.41 0.28 0.23 0.20 0.24 0.24 0.22 0.11 0.06 0.11 0.07 0.02 0.03 0.03 0.03 0.01 0.00 0.00 0.00 0.02 0.01 0.01 0.02 0.01 0.03 0.00 0.00 0.00 0.01 0.02 0.01
0.43 0.41 0.36 0.35 0.32 0.30 0.26 0.34 0.45 0.51 0.38 0.28 0.27 0.27 0.27 0.24 0.14 0.12 0.13 0.13 0.16 0.23 0.17 0.08 0.03 0.02 0.01 0.00 0.01 0.00 0.00 0.00 0.00 0.00 0.00 0.00 0.00 0.01 0.02 0.03 0.01 0.00 0.02 0.02 0.00 0.01 0.05
0.36 0.29 0.30 0.29 0.24 0.20 0.18 0.19 0.19 0.16 0.14 0.10 0.07 0.03 0.04 0.09 0.14 0.13 0.16 0.13 0.10 0.12 0.07 0.01 0.00 0.00 0.00 0.00 0.00 0.00 0.00 0.00 0.00 0.00 0.00 0.00 0.01 0.04 0.03 0.05 0.03 0.00 0.03 0.03 0.00 0.06 0.12
0.32 0.30 0.26 0.24 0.22 0.16 0.11 0.12 0.15 0.12 0.07 0.04 0.04 0.04 0.04 0.09 0.11 0.06 0.05 0.05 0.02 0.01 0.01 0.00 0.00 0.00 0.00 0.00 0.00 0.00 0.00 0.00 0.00 0.00 0.00 0.00 0.04 0.11 0.15 0.23 0.18 0.08 0.04 0.02 0.08 0.07 0.03
0.25 0.23 0.21 0.15 0.09 0.05 0.03 0.02 0.04 0.05 0.02 0.01 0.01 0.00 0.00 0.01 0.00 0.00 0.00 0.00 0.00 0.00 0.00 0.00 0.00 0.00 0.00 0.00 0.00 0.00 0.01 0.00 0.01 0.01 0.01 0.02 0.04 0.03 0.08 0.16 0.11 0.05 0.02 0.01 0.02 0.01 0.05
0.23 0.14 0.09 0.06 0.05 0.02 0.02 0.01 0.01 0.00 0.00 0.00 0.00 0.00 0.00 0.00 0.00 0.00 0.00 0.00 0.00 0.00 0.00 0.00 0.00 0.00 0.00 0.01 0.03 0.06 0.06 0.04 0.03 0.01 0.00 0.01 0.02 0.03 0.05 0.04 0.01 0.01 0.02 0.01 0.04 0.10 0.08

GFSGBSN_prec_precacc12_216.txt.gz
Total_Precipitation_Accumulation
0.00 0.00 0.00 0.00 0.00 0.00 0.00 0.00 0.00 0.00 0.00 0.00 0.00 0.00 0.00 0.00 0.00 0.00 0.00 0.00 0.00 0.00 0.00 0.00 0.00 0.00 0.00 0.00 0.00 0.00 0.00 0.00 0.00 0.00 0.00 0.00 0.00 0.00 0.00 0.00 0.00 0.00 0.00 0.00 0.00 0.00 0.00
0.00 0.00 0.00 0.00 0.00 0.00 0.00 0.00 0.00 0.00 0.00 0.00 0.00 0.00 0.00 0.00 0.00 0.00 0.00 0.00 0.00 0.00 0.00 0.00 0.00 0.00 0.00 0.00 0.00 0.00 0.00 0.00 0.00 0.00 0.00 0.00 0.00 0.00 0.00 0.00 0.00 0.00 0.00 0.00 0.00 0.00 0.00
0.00 0.00 0.00 0.00 0.00 0.00 0.00 0.00 0.00 0.00 0.00 0.00 0.00 0.00 0.00 0.00 0.00 0.00 0.00 0.00 0.00 0.00 0.00 0.00 0.00 0.00 0.00 0.00 0.00 0.00 0.00 0.00 0.00 0.00 0.00 0.00 0.00 0.00 0.00 0.00 0.00 0.00 0.00 0.00 0.00 0.00 0.00
0.00 0.00 0.00 0.00 0.00 0.00 0.00 0.00 0.00 0.00 0.00 0.00 0.00 0.00 0.00 0.00 0.00 0.00 0.00 0.00 0.00 0.00 0.00 0.00 0.00 0.00 0.00 0.00 0.00 0.00 0.00 0.00 0.00 0.00 0.00 0.00 0.00 0.00 0.00 0.00 0.00 0.00 0.00 0.00 0.00 0.00 0.00
0.00 0.00 0.00 0.00 0.00 0.00 0.00 0.00 0.00 0.00 0.00 0.00 0.00 0.00 0.00 0.00 0.00 0.00 0.00 0.00 0.00 0.00 0.00 0.00 0.00 0.00 0.00 0.00 0.00 0.00 0.00 0.00 0.00 0.00 0.00 0.00 0.00 0.00 0.00 0.00 0.00 0.00 0.00 0.00 0.00 0.00 0.00
0.00 0.00 0.00 0.00 0.00 0.00 0.00 0.00 0.00 0.00 0.00 0.00 0.00 0.00 0.00 0.00 0.00 0.00 0.00 0.00 0.00 0.00 0.00 0.00 0.00 0.00 0.00 0.00 0.00 0.00 0.00 0.00 0.00 0.00 0.00 0.00 0.00 0.00 0.00 0.00 0.00 0.00 0.00 0.00 0.00 0.00 0.00
0.00 0.00 0.00 0.00 0.00 0.00 0.00 0.00 0.00 0.00 0.00 0.00 0.00 0.00 0.00 0.00 0.00 0.00 0.00 0.00 0.00 0.00 0.00 0.00 0.00 0.00 0.00 0.00 0.00 0.00 0.00 0.00 0.00 0.00 0.00 0.00 0.00 0.00 0.00 0.00 0.00 0.00 0.00 0.00 0.00 0.00 0.00
0.00 0.00 0.00 0.00 0.00 0.00 0.00 0.00 0.00 0.00 0.00 0.00 0.00 0.00 0.00 0.00 0.00 0.00 0.00 0.00 0.00 0.00 0.00 0.00 0.00 0.00 0.00 0.00 0.00 0.00 0.00 0.00 0.00 0.00 0.00 0.00 0.00 0.00 0.00 0.00 0.00 0.00 0.00 0.00 0.00 0.00 0.00
0.00 0.00 0.00 0.00 0.00 0.00 0.00 0.00 0.00 0.00 0.00 0.00 0.00 0.00 0.00 0.00 0.00 0.00 0.00 0.00 0.00 0.00 0.00 0.00 0.00 0.00 0.00 0.00 0.00 0.00 0.00 0.00 0.00 0.00 0.00 0.00 0.00 0.00 0.00 0.00 0.00 0.00 0.00 0.00 0.00 0.00 0.00
0.01 0.00 0.00 0.00 0.00 0.00 0.00 0.00 0.00 0.00 0.00 0.00 0.00 0.00 0.00 0.00 0.00 0.00 0.00 0.00 0.00 0.00 0.00 0.00 0.00 0.00 0.00 0.00 0.00 0.00 0.00 0.00 0.00 0.00 0.00 0.00 0.00 0.00 0.00 0.00 0.00 0.00 0.00 0.00 0.00 0.00 0.00
0.09 0.01 0.00 0.00 0.00 0.00 0.00 0.00 0.00 0.00 0.00 0.00 0.00 0.00 0.00 0.00 0.00 0.00 0.00 0.00 0.00 0.00 0.00 0.00 0.00 0.00 0.00 0.00 0.00 0.00 0.00 0.00 0.00 0.00 0.00 0.00 0.00 0.00 0.00 0.00 0.00 0.00 0.00 0.00 0.00 0.00 0.00
0.11 0.07 0.01 0.00 0.00 0.00 0.00 0.00 0.00 0.00 0.00 0.00 0.00 0.00 0.00 0.00 0.00 0.00 0.00 0.00 0.00 0.00 0.00 0.00 0.00 0.00 0.00 0.00 0.00 0.00 0.00 0.00 0.00 0.00 0.00 0.00 0.00 0.00 0.00 0.00 0.00 0.00 0.00 0.00 0.00 0.00 0.00
0.12 0.06 0.03 0.01 0.00 0.00 0.00 0.00 0.00 0.00 0.00 0.00 0.00 0.00 0.00 0.00 0.00 0.00 0.00 0.00 0.00 0.00 0.00 0.00 0.00 0.00 0.00 0.00 0.00 0.00 0.00 0.00 0.00 0.00 0.00 0.00 0.00 0.00 0.00 0.00 0.00 0.00 0.00 0.00 0.00 0.00 0.00
0.30 0.12 0.07 0.03 0.00 0.00 0.00 0.00 0.00 0.00 0.00 0.00 0.00 0.01 0.01 0.00 0.00 0.00 0.00 0.03 0.04 0.00 0.00 0.00 0.00 0.00 0.00 0.00 0.00 0.00 0.00 0.00 0.00 0.00 0.00 0.00 0.00 0.00 0.00 0.00 0.00 0.00 0.00 0.00 0.00 0.00 0.00
0.66 0.29 0.15 0.08 0.01 0.00 0.00 0.00 0.00 0.00 0.00 0.00 0.04 0.06 0.03 0.02 0.01 0.07 0.18 0.16 0.03 0.00 0.00 0.00 0.00 0.00 0.00 0.00 0.00 0.00 0.00 0.00 0.00 0.00 0.00 0.00 0.00 0.00 0.00 0.00 0.00 0.00 0.00 0.00 0.00 0.01 0.01
0.60 0.54 0.33 0.19 0.06 0.01 0.00 0.00 0.00 0.00 0.00 0.02 0.06 0.11 0.09 0.05 0.13 0.42 0.52 0.25 0.01 0.00 0.00 0.00 0.02 0.00 0.00 0.00 0.00 0.00 0.00 0.00 0.00 0.00 0.00 0.00 0.00 0.00 0.00 0.00 0.00 0.00 0.00 0.00 0.04 0.10 0.04
0.64 0.41 0.39 0.30 0.16 0.05 0.00 0.00 0.00 0.01 0.03 0.17 0.33 0.41 0.17 0.06 0.25 0.63 0.38 0.06 0.00 0.00 0.00 0.00 0.00 0.01 0.01 0.01 0.02 0.02 0.03 0.00 0.00 0.00 0.00 0.00 0.01 0.00 0.00 0.00 0.00 0.00 0.00 0.00 0.07 0.07 0.10
0.76 0.78 0.47 0.31 0.22 0.15 0.06 0.01 0.03 0.07 0.26 0.58 0.56 0.52 0.25 0.13 0.33 0.36 0.13 0.01 0.00 0.00 0.00 0.00 0.00 0.02 0.04 0.07 0.11 0.07 0.02 0.00 0.00 0.00 0.01 0.01 0.02 0.02 0.00 0.00 0.00 0.00 0.00 0.01 0.27 0.15 0.20
0.82 0.69 0.87 0.85 0.37 0.23 0.13 0.06 0.07 0.25 0.42 0.58 0.81 0.59 0.44 0.35 0.29 0.16 0.06 0.02 0.01 0.01 0.01 0.03 0.05 0.08 0.10 0.12 0.16 0.09 0.02 0.00 0.00 0.01 0.01 0.01 0.05 0.03 0.00 0.00 0.00 0.00 0.00 0.00 0.07 0.15 0.12
0.86 0.88 0.61 0.69 0.98 0.69 0.47 0.33 0.29 0.45 0.70 0.85 1.09 0.81 0.55 0.38 0.19 0.05 0.04 0.05 0.03 0.02 0.06 0.11 0.17 0.16 0.16 0.16 0.13 0.17 0.06 0.01 0.00 0.00 0.02 0.03 0.07 0.01 0.00 0.00 0.00 0.02 0.00 0.03 0.18 0.28 0.13
0.63 0.92 0.96 0.86 0.83 1.11 1.25 1.14 1.04 1.23 1.39 1.60 1.77 1.21 0.51 0.30 0.13 0.06 0.14 0.27 0.16 0.12 0.25 0.33 0.35 0.14 0.11 0.35 0.20 0.10 0.05 0.06 0.02 0.02 0.01 0.05 0.10 0.01 0.00 0.00 0.01 0.03 0.04 0.05 0.13 0.12 0.21
0.49 0.71 0.78 0.86 0.97 1.06 1.21 1.71 1.34 1.08 1.28 1.91 1.70 0.97 0.53 0.34 0.20 0.21 0.42 0.34 0.14 0.14 0.34 0.38 0.24 0.12 0.17 0.26 0.10 0.10 0.09 0.12 0.09 0.02 0.03 0.04 0.09 0.01 0.00 0.00 0.00 0.00 0.00 0.01 0.00 0.01 0.01
0.39 0.54 0.70 0.74 0.66 0.70 0.92 1.28 1.72 1.48 1.28 1.38 0.82 0.45 0.36 0.62 0.44 0.34 0.32 0.16 0.20 0.26 0.49 0.32 0.18 0.30 0.22 0.11 0.18 0.18 0.11 0.07 0.07 0.07 0.13 0.19 0.16 0.14 0.07 0.00 0.00 0.01 0.00 0.00 0.00 0.00 0.01
0.23 0.35 0.45 0.54 0.55 0.48 0.62 0.95 1.23 1.72 1.44 0.74 0.39 0.37 0.65 0.79 0.45 0.25 0.24 0.22 0.31 0.34 0.45 0.28 0.15 0.21 0.13 0.06 0.08 0.07 0.05 0.02 0.01 0.01 0.03 0.11 0.12 0.15 0.09 0.01 0.03 0.00 0.00 0.00 0.00 0.01 0.01
0.23 0.33 0.37 0.40 0.42 0.44 0.37 0.58 0.93 1.33 1.45 1.00 0.64 0.55 0.66 0.72 0.44 0.29 0.28 0.31 0.37 0.47 0.39 0.29 0.18 0.11 0.08 0.03 0.01 0.00 0.00 0.00 0.00 0.00 0.01 0.02 0.03 0.03 0.03 0.01 0.01 0.00 0.00 0.00 0.00 0.01 0.00
0.28 0.26 0.34 0.43 0.42 0.37 0.33 0.38 0.47 0.65 0.95 1.00 0.86 0.47 0.45 0.60 0.53 0.30 0.35 0.35 0.33 0.35 0.31 0.17 0.08 0.04 0.01 0.00 0.00 0.00 0.00 0.00 0.00 0.00 0.00 0.00 0.00 0.00 0.00 0.01 0.01 0.00 0.01 0.01 0.02 0.04 0.00
0.26 0.32 0.33 0.38 0.41 0.41 0.31 0.35 0.45 0.48 0.58 0.73 0.78 0.61 0.58 0.75 0.68 0.33 0.31 0.31 0.24 0.20 0.14 0.07 0.05 0.02 0.00 0.00 0.00 0.00 0.00 0.00 0.00 0.00 0.00 0.00 0.00 0.02 0.04 0.12 0.11 0.08 0.04 0.03 0.09 0.05 0.00
0.26 0.30 0.34 0.31 0.28 0.32 0.29 0.18 0.26 0.43 0.50 0.48 0.49 0.37 0.38 0.47 0.41 0.21 0.18 0.14 0.11 0.06 0.03 0.02 0.00 0.00 0.00 0.00 0.00 0.00 0.00 0.00 0.00 0.00 0.01 0.02 0.03 0.01 0.04 0.12 0.09 0.03 0.01 0.00 0.00 0.00 0.00
0.27 0.22 0.24 0.24 0.21 0.24 0.29 0.25 0.22 0.30 0.32 0.31 0.30 0.21 0.17 0.23 0.23 0.08 0.06 0.04 0.03 0.01 0.00 0.00 0.00 0.00 0.00 0.00 0.00 0.01 0.01 0.01 0.01 0.00 0.00 0.00 0.01 0.01 0.00 0.00 0.00 0.00 0.00 0.00 0.00 0.00 0.00

GFSGBSN_prec_precacc12_219.txt.gz
Total_Precipitation_Accumulation
0.00 0.00 0.00 0.00 0.00 0.00 0.00 0.00 0.00 0.00 0.00 0.00 0.00 0.00 0.00 0.00 0.00 0.00 0.00 0.00 0.00 0.00 0.00 0.00 0.00 0.00 0.00 0.00 0.00 0.00 0.00 0.00 0.00 0.00 0.00 0.00 0.00 0.00 0.00 0.00 0.00 0.00 0.00 0.00 0.00 0.00 0.00
0.00 0.00 0.00 0.00 0.00 0.00 0.00 0.00 0.00 0.00 0.00 0.00 0.00 0.00 0.00 0.00 0.00 0.00 0.00 0.00 0.00 0.00 0.00 0.00 0.00 0.00 0.00 0.00 0.00 0.00 0.00 0.00 0.00 0.00 0.00 0.00 0.00 0.00 0.00 0.00 0.00 0.00 0.00 0.00 0.00 0.00 0.00
0.00 0.00 0.00 0.00 0.00 0.00 0.00 0.00 0.00 0.00 0.00 0.00 0.00 0.00 0.00 0.00 0.00 0.00 0.00 0.00 0.00 0.00 0.00 0.00 0.00 0.00 0.00 0.00 0.00 0.00 0.00 0.00 0.00 0.00 0.00 0.00 0.00 0.00 0.00 0.00 0.00 0.00 0.00 0.00 0.00 0.00 0.00
0.00 0.00 0.00 0.00 0.00 0.00 0.00 0.00 0.00 0.00 0.00 0.00 0.00 0.00 0.00 0.00 0.00 0.00 0.00 0.00 0.00 0.00 0.00 0.00 0.00 0.00 0.00 0.00 0.00 0.00 0.00 0.00 0.00 0.00 0.00 0.00 0.00 0.00 0.00 0.00 0.00 0.00 0.00 0.00 0.00 0.00 0.00
0.00 0.00 0.00 0.00 0.00 0.00 0.00 0.00 0.00 0.00 0.00 0.00 0.00 0.00 0.00 0.00 0.00 0.00 0.00 0.00 0.00 0.00 0.00 0.00 0.00 0.00 0.00 0.00 0.00 0.00 0.00 0.00 0.00 0.00 0.00 0.00 0.00 0.00 0.00 0.00 0.00 0.00 0.00 0.00 0.00 0.00 0.00
0.00 0.00 0.00 0.00 0.00 0.00 0.00 0.00 0.00 0.00 0.00 0.00 0.00 0.00 0.00 0.00 0.00 0.00 0.00 0.00 0.00 0.00 0.00 0.00 0.00 0.00 0.00 0.00 0.00 0.00 0.00 0.00 0.00 0.00 0.00 0.00 0.00 0.00 0.00 0.00 0.00 0.00 0.00 0.00 0.00 0.00 0.00
0.02 0.00 0.00 0.00 0.00 0.00 0.00 0.00 0.00 0.00 0.00 0.00 0.00 0.00 0.00 0.00 0.00 0.00 0.00 0.00 0.00 0.00 0.00 0.00 0.00 0.00 0.00 0.00 0.00 0.00 0.00 0.00 0.00 0.00 0.00 0.00 0.00 0.00 0.00 0.00 0.00 0.00 0.00 0.00 0.00 0.00 0.00
0.07 0.02 0.00 0.00 0.00 0.00 0.00 0.00 0.00 0.00 0.00 0.00 0.00 0.00 0.00 0.00 0.00 0.00 0.00 0.00 0.00 0.00 0.00 0.00 0.00 0.00 0.00 0.00 0.00 0.00 0.00 0.00 0.00 0.00 0.00 0.00 0.00 0.00 0.00 0.00 0.00 0.00 0.00 0.00 0.00 0.00 0.00
0.15 0.07 0.01 0.00 0.00 0.00 0.00 0.00 0.00 0.00 0.00 0.00 0.00 0.00 0.00 0.00 0.00 0.00 0.00 0.00 0.00 0.00 0.00 0.00 0.00 0.00 0.00 0.00 0.00 0.00 0.00 0.00 0.00 0.00 0.00 0.00 0.00 0.00 0.00 0.00 0.00 0.00 0.00 0.00 0.00 0.00 0.00
0.25 0.10 0.03 0.01 0.00 0.00 0.00 0.00 0.00 0.00 0.00 0.00 0.00 0.00 0.00 0.00 0.00 0.00 0.00 0.00 0.00 0.00 0.00 0.00 0.00 0.00 0.00 0.00 0.00 0.00 0.00 0.00 0.00 0.00 0.00 0.00 0.00 0.00 0.00 0.00 0.00 0.00 0.00 0.00 0.00 0.00 0.00
0.36 0.22 0.09 0.03 0.00 0.00 0.00 0.00 0.00 0.00 0.00 0.00 0.00 0.00 0.00 0.00 0.00 0.00 0.00 0.00 0.00 0.00 0.00 0.00 0.00 0.00 0.00 0.00 0.00 0.00 0.00 0.00 0.00 0.00 0.00 0.00 0.00 0.00 0.00 0.00 0.00 0.00 0.00 0.00 0.00 0.00 0.00
0.42 0.32 0.24 0.08 0.02 0.00 0.00 0.00 0.00 0.00 0.00 0.00 0.00 0.00 0.00 0.00 0.00 0.00 0.00 0.00 0.00 0.00 0.00 0.00 0.00 0.00 0.00 0.00 0.00 0.00 0.00 0.00 0.00 0.00 0.00 0.00 0.00 0.00 0.00 0.00 0.00 0.00 0.00 0.00 0.00 0.00 0.00
0.36 0.31 0.27 0.22 0.09 0.00 0.00 0.00 0.00 0.00 0.00 0.00 0.00 0.00 0.00 0.00 0.00 0.00 0.00 0.00 0.00 0.00 0.00 0.00 0.00 0.00 0.00 0.00 0.00 0.00 0.00 0.00 0.00 0.00 0.00 0.00 0.00 0.00 0.00 0.00 0.00 0.00 0.00 0.00 0.00 0.00 0.00
0.53 0.33 0.23 0.16 0.11 0.05 0.00 0.00 0.00 0.00 0.00 0.00 0.00 0.00 0.00 0.00 0.00 0.00 0.00 0.02 0.02 0.00 0.00 0.00 0.00 0.00 0.00 0.00 0.00 0.00 0.00 0.00 0.00 0.00 0.00 0.00 0.00 0.00 0.00 0.00 0.00 0.00 0.00 0.00 0.00 0.00 0.00
0.84 0.52 0.31 0.18 0.08 0.05 0.01 0.00 0.00 0.00 0.00 0.00 0.00 0.00 0.00 0.00 0.00 0.03 0.13 0.10 0.02 0.00 0.00 0.00 0.00 0.00 0.00 0.00 0.00 0.00 0.00 0.00 0.00 0.00 0.00 0.00 0.00 0.00 0.00 0.00 0.00 0.00 0.00 0.00 0.00 0.00 0.01
0.67 0.73 0.54 0.35 0.16 0.05 0.02 0.01 0.00 0.00 0.00 0.00 0.00 0.03 0.02 0.00 0.01 0.21 0.35 0.17 0.01 0.00 0.00 0.00 0.00 0.00 0.00 0.00 0.00 0.00 0.00 0.00 0.00 0.00 0.00 0.00 0.00 0.00 0.00 0.00 0.00 0.00 0.00 0.00 0.03 0.09 0.03
0.65 0.54 0.58 0.45 0.35 0.16 0.05 0.02 0.01 0.00 0.00 0.01 0.05 0.15 0.05 0.01 0.07 0.35 0.25 0.04 0.00 0.00 0.00 0.00 0.00 0.00 0.00 0.00 0.00 0.00 0.01 0.00 0.00 0.00 0.00 0.00 0.01 0.00 0.00 0.00 0.00 0.00 0.00 0.00 0.08 0.09 0.10
0.67 0.71 0.60 0.45 0.42 0.35 0.20 0.06 0.01 0.02 0.03 0.10 0.16 0.23 0.10 0.06 0.17 0.19 0.08 0.01 0.01 0.00 0.00 0.00 0.00 0.00 0.00 0.00 0.02 0.03 0.01 0.00 0.00 0.00 0.01 0.01 0.03 0.02 0.00 0.00 0.00 0.00 0.00 0.01 0.29 0.15 0.19
0.64 0.68 0.80 0.86 0.49 0.39 0.33 0.22 0.03 0.04 0.06 0.10 0.31 0.29 0.30 0.25 0.19 0.11 0.04 0.01 0.01 0.01 0.01 0.02 0.01 0.00 0.01 0.02 0.08 0.06 0.02 0.00 0.00 0.01 0.02 0.02 0.07 0.05 0.00 0.00 0.00 0.00 0.00 0.00 0.11 0.21 0.16
0.47 0.70 0.69 0.77 1.02 0.70 0.46 0.41 0.23 0.10 0.17 0.34 0.59 0.49 0.40 0.34 0.17 0.05 0.03 0.04 0.01 0.01 0.02 0.03 0.04 0.03 0.06 0.09 0.09 0.12 0.05 0.02 0.01 0.01 0.06 0.06 0.11 0.02 0.01 0.00 0.00 0.02 0.01 0.04 0.20 0.30 0.13
0.29 0.50 0.70 0.81 0.82 1.08 1.14 0.98 0.70 0.55 0.63 0.91 1.16 0.80 0.33 0.21 0.12 0.06 0.11 0.21 0.10 0.06 0.13 0.17 0.19 0.08 0.07 0.33 0.21 0.09 0.03 0.05 0.05 0.07 0.05 0.10 0.14 0.01 0.00 0.00 0.01 0.04 0.06 0.08 0.16 0.13 0.26
0.24 0.42 0.57 0.65 0.81 0.94 1.13 1.59 1.35 0.88 0.82 1.38 1.29 0.75 0.41 0.25 0.14 0.16 0.30 0.23 0.07 0.05 0.21 0.27 0.17 0.07 0.13 0.25 0.11 0.13 0.12 0.12 0.14 0.06 0.05 0.08 0.13 0.01 0.00 0.00 0.00 0.00 0.00 0.01 0.00 0.01 0.01
0.22 0.28 0.48 0.66 0.61 0.65 0.92 1.25 1.89 1.78 1.18 1.15 0.70 0.40 0.32 0.49 0.33 0.25 0.24 0.11 0.12 0.18 0.42 0.26 0.15 0.27 0.23 0.10 0.20 0.25 0.18 0.14 0.13 0.11 0.16 0.23 0.17 0.14 0.07 0.00 0.00 0.01 0.00 0.00 0.00 0.00 0.00
0.16 0.25 0.39 0.57 0.58 0.45 0.60 0.94 1.29 2.10 1.65 0.71 0.36 0.32 0.58 0.72 0.40 0.22 0.21 0.20 0.26 0.30 0.46 0.35 0.19 0.25 0.21 0.13 0.20 0.16 0.11 0.05 0.03 0.04 0.07 0.15 0.14 0.18 0.09 0.01 0.03 0.00 0.00 0.00 0.00 0.00 0.00
0.12 0.18 0.27 0.42 0.47 0.45 0.41 0.59 1.00 1.53 1.90 1.09 0.63 0.53 0.65 0.71 0.43 0.26 0.24 0.29 0.37 0.49 0.46 0.41 0.29 0.21 0.20 0.13 0.07 0.03 0.01 0.00 0.00 0.01 0.03 0.06 0.06 0.04 0.03 0.01 0.01 0.00 0.00 0.00 0.00 0.00 0.00
0.17 0.16 0.22 0.36 0.47 0.48 0.44 0.47 0.57 0.82 1.33 1.56 0.94 0.49 0.47 0.66 0.60 0.30 0.36 0.40 0.41 0.47 0.47 0.37 0.27 0.18 0.08 0.05 0.04 0.03 0.00 0.00 0.00 0.00 0.00 0.01 0.01 0.00 0.00 0.00 0.01 0.00 0.00 0.00 0.02 0.04 0.00
0.19 0.25 0.28 0.37 0.46 0.53 0.46 0.47 0.56 0.62 0.94 1.32 1.07 0.72 0.72 1.03 0.93 0.43 0.40 0.44 0.38 0.37 0.35 0.26 0.21 0.14 0.04 0.02 0.01 0.00 0.00 0.00 0.00 0.00 0.00 0.00 0.00 0.00 0.01 0.05 0.06 0.05 0.04 0.03 0.07 0.04 0.00
0.18 0.23 0.24 0.24 0.31 0.44 0.48 0.35 0.42 0.64 0.90 1.03 0.91 0.62 0.62 0.83 0.76 0.39 0.32 0.30 0.28 0.21 0.19 0.15 0.09 0.05 0.01 0.00 0.00 0.00 0.00 0.00 0.00 0.00 0.00 0.01 0.02 0.01 0.02 0.06 0.05 0.02 0.01 0.00 0.00 0.00 0.00
0.18 0.15 0.19 0.20 0.22 0.35 0.47 0.43 0.44 0.63 0.69 0.62 0.57 0.47 0.43 0.63 0.62 0.25 0.18 0.18 0.16 0.10 0.06 0.05 0.02 0.00 0.00 0.00 0.00 0.00 0.00 0.00 0.00 0.00 0.00 0.00 0.00 0.00 0.00 0.00 0.00 0.00 0.00 0.00 0.00 0.00 0.00

GFSGBSN_prec_precacc12_222.txt.gz
Total_Precipitation_Accumulation
0.00 0.00 0.00 0.00 0.00 0.00 0.00 0.00 0.00 0.00 0.00 0.00 0.00 0.00 0.00 0.00 0.00 0.00 0.00 0.00 0.00 0.00 0.00 0.00 0.00 0.00 0.00 0.00 0.00 0.00 0.00 0.00 0.00 0.00 0.00 0.00 0.00 0.00 0.00 0.00 0.00 0.00 0.00 0.00 0.00 0.00 0.00
0.00 0.00 0.00 0.00 0.00 0.00 0.00 0.00 0.00 0.00 0.00 0.00 0.00 0.00 0.00 0.00 0.00 0.00 0.00 0.00 0.00 0.00 0.00 0.00 0.00 0.00 0.00 0.00 0.00 0.00 0.00 0.00 0.00 0.00 0.00 0.00 0.00 0.00 0.00 0.00 0.00 0.00 0.00 0.00 0.00 0.00 0.00
0.00 0.00 0.00 0.00 0.00 0.00 0.00 0.00 0.00 0.00 0.00 0.00 0.00 0.00 0.00 0.00 0.00 0.00 0.00 0.00 0.00 0.00 0.00 0.00 0.00 0.00 0.00 0.00 0.00 0.00 0.00 0.00 0.00 0.00 0.00 0.00 0.00 0.00 0.00 0.00 0.00 0.00 0.00 0.00 0.00 0.00 0.00
0.01 0.00 0.00 0.00 0.00 0.00 0.00 0.00 0.00 0.00 0.00 0.00 0.00 0.00 0.00 0.00 0.00 0.00 0.00 0.00 0.00 0.00 0.00 0.00 0.00 0.00 0.00 0.00 0.00 0.00 0.00 0.00 0.00 0.00 0.00 0.00 0.00 0.00 0.00 0.00 0.00 0.00 0.00 0.00 0.00 0.00 0.00
0.01 0.01 0.00 0.00 0.00 0.00 0.00 0.00 0.00 0.00 0.00 0.00 0.00 0.00 0.00 0.00 0.00 0.00 0.00 0.00 0.00 0.00 0.00 0.00 0.00 0.00 0.00 0.00 0.00 0.00 0.00 0.00 0.00 0.00 0.00 0.00 0.00 0.00 0.00 0.00 0.00 0.00 0.00 0.00 0.00 0.00 0.00
0.07 0.03 0.00 0.00 0.00 0.00 0.00 0.00 0.00 0.00 0.00 0.00 0.00 0.00 0.00 0.00 0.00 0.00 0.00 0.00 0.00 0.00 0.00 0.00 0.00 0.00 0.00 0.00 0.00 0.00 0.00 0.00 0.00 0.00 0.00 0.00 0.00 0.00 0.00 0.00 0.00 0.00 0.00 0.00 0.00 0.00 0.00
0.21 0.16 0.08 0.02 0.00 0.00 0.00 0.00 0.00 0.00 0.00 0.00 0.00 0.00 0.00 0.00 0.00 0.00 0.00 0.00 0.00 0.00 0.00 0.00 0.00 0.00 0.00 0.00 0.00 0.00 0.00 0.00 0.00 0.00 0.00 0.00 0.00 0.00 0.00 0.00 0.00 0.00 0.00 0.00 0.00 0.00 0.00
0.18 0.25 0.22 0.11 0.02 0.00 0.00 0.00 0.00 0.00 0.00 0.00 0.00 0.00 0.00 0.00 0.00 0.00 0.00 0.00 0.00 0.00 0.00 0.00 0.00 0.00 0.00 0.00 0.00 0.00 0.00 0.00 0.00 0.00 0.00 0.00 0.00 0.00 0.00 0.00 0.00 0.00 0.00 0.00 0.00 0.00 0.00
0.23 0.20 0.21 0.25 0.12 0.01 0.00 0.00 0.00 0.00 0.00 0.00 0.00 0.00 0.00 0.00 0.00 0.00 0.00 0.00 0.00 0.00 0.00 0.00 0.00 0.00 0.00 0.00 0.00 0.00 0.00 0.00 0.00 0.00 0.00 0.00 0.00 0.00 0.00 0.00 0.00 0.00 0.00 0.00 0.00 0.00 0.00
0.28 0.19 0.18 0.20 0.22 0.07 0.00 0.00 0.00 0.00 0.00 0.00 0.00 0.00 0.00 0.00 0.00 0.00 0.00 0.00 0.00 0.00 0.00 0.00 0.00 0.00 0.00 0.00 0.00 0.00 0.00 0.00 0.00 0.00 0.00 0.00 0.00 0.00 0.00 0.00 0.00 0.00 0.00 0.00 0.00 0.00 0.00
0.37 0.27 0.17 0.16 0.17 0.12 0.02 0.00 0.00 0.00 0.00 0.00 0.00 0.00 0.00 0.00 0.00 0.00 0.00 0.00 0.00 0.00 0.00 0.00 0.00 0.00 0.00 0.00 0.00 0.00 0.00 0.00 0.00 0.00 0.00 0.00 0.00 0.00 0.00 0.00 0.00 0.00 0.00 0.00 0.00 0.00 0.00
0.43 0.37 0.31 0.20 0.15 0.12 0.06 0.01 0.00 0.00 0.00 0.00 0.00 0.00 0.00 0.00 0.00 0.00 0.00 0.00 0.00 0.00 0.00 0.00 0.00 0.00 0.00 0.00 0.00 0.00 0.00 0.00 0.00 0.00 0.00 0.00 0.00 0.00 0.00 0.00 0.00 0.00 0.00 0.00 0.00 0.00 0.00
0.36 0.32 0.35 0.35 0.26 0.15 0.10 0.03 0.00 0.00 0.00 0.00 0.00 0.00 0.00 0.00 0.00 0.00 0.00 0.00 0.00 0.00 0.00 0.00 0.00 0.00 0.00 0.00 0.00 0.00 0.00 0.00 0.00 0.00 0.00 0.00 0.00 0.00 0.00 0.00 0.00 0.00 0.00 0.00 0.00 0.00 0.00
0.52 0.33 0.26 0.31 0.32 0.31 0.14 0.08 0.02 0.00 0.00 0.00 0.00 0.00 0.00 0.00 0.00 0.00 0.00 0.00 0.01 0.00 0.00 0.00 0.00 0.00 0.00 0.00 0.00 0.00 0.00 0.00 0.00 0.00 0.00 0.00 0.00 0.00 0.00 0.00 0.00 0.00 0.00 0.00 0.00 0.00 0.00
0.82 0.52 0.33 0.27 0.27 0.30 0.39 0.18 0.06 0.01 0.00 0.00 0.00 0.00 0.00 0.00 0.00 0.01 0.03 0.02 0.00 0.00 0.00 0.00 0.00 0.00 0.00 0.00 0.00 0.00 0.00 0.00 0.00 0.00 0.00 0.00 0.00 0.00 0.00 0.00 0.00 0.00 0.00 0.00 0.00 0.00 0.00
0.64 0.72 0.55 0.41 0.30 0.27 0.32 0.46 0.18 0.04 0.01 0.00 0.01 0.02 0.00 0.00 0.00 0.06 0.15 0.08 0.00 0.00 0.00 0.00 0.00 0.00 0.00 0.00 0.00 0.00 0.00 0.00 0.00 0.00 0.00 0.00 0.00 0.00 0.00 0.00 0.00 0.00 0.00 0.00 0.03 0.07 0.02
0.51 0.50 0.57 0.54 0.51 0.33 0.29 0.34 0.43 0.11 0.03 0.01 0.02 0.05 0.01 0.00 0.04 0.19 0.14 0.03 0.00 0.00 0.00 0.00 0.00 0.00 0.00 0.00 0.00 0.00 0.01 0.00 0.00 0.00 0.00 0.00 0.00 0.00 0.00 0.00 0.00 0.00 0.00 0.00 0.07 0.09 0.09
0.44 0.46 0.46 0.46 0.55 0.55 0.37 0.30 0.32 0.18 0.08 0.08 0.08 0.11 0.03 0.03 0.12 0.12 0.06 0.01 0.00 0.00 0.00 0.00 0.00 0.00 0.00 0.00 0.01 0.01 0.00 0.00 0.00 0.00 0.01 0.01 0.03 0.02 0.00 0.00 0.00 0.00 0.00 0.01 0.28 0.12 0.16
0.42 0.47 0.48 0.49 0.47 0.56 0.59 0.46 0.28 0.17 0.10 0.06 0.14 0.11 0.17 0.15 0.10 0.08 0.04 0.01 0.00 0.00 0.01 0.02 0.01 0.00 0.00 0.00 0.03 0.02 0.00 0.00 0.00 0.01 0.02 0.02 0.07 0.05 0.01 0.00 0.00 0.00 0.00 0.00 0.10 0.22 0.17
0.29 0.51 0.51 0.54 0.55 0.64 0.66 0.71 0.42 0.17 0.11 0.08 0.18 0.16 0.21 0.28 0.11 0.03 0.02 0.01 0.01 0.01 0.02 0.02 0.03 0.02 0.02 0.04 0.04 0.10 0.05 0.02 0.01 0.02 0.08 0.07 0.12 0.02 0.01 0.00 0.01 0.04 0.01 0.04 0.20 0.29 0.12
0.17 0.35 0.54 0.61 0.64 0.74 0.98 1.01 0.80 0.27 0.16 0.22 0.39 0.26 0.10 0.14 0.10 0.03 0.02 0.08 0.06 0.03 0.09 0.12 0.13 0.04 0.06 0.29 0.17 0.07 0.03 0.06 0.08 0.14 0.11 0.16 0.18 0.02 0.00 0.00 0.01 0.05 0.08 0.10 0.18 0.14 0.29
0.16 0.28 0.45 0.54 0.67 0.73 0.99 1.56 1.30 0.86 0.37 0.67 0.64 0.35 0.20 0.11 0.05 0.05 0.13 0.13 0.05 0.04 0.18 0.24 0.14 0.07 0.12 0.22 0.12 0.15 0.14 0.14 0.15 0.09 0.08 0.13 0.17 0.02 0.00 0.00 0.00 0.00 0.00 0.01 0.00 0.01 0.02
0.17 0.21 0.38 0.55 0.50 0.61 0.85 1.12 1.87 2.16 1.17 0.86 0.48 0.22 0.13 0.23 0.18 0.16 0.18 0.10 0.11 0.16 0.38 0.24 0.14 0.25 0.21 0.09 0.18 0.25 0.22 0.19 0.15 0.12 0.13 0.19 0.11 0.08 0.05 0.00 0.00 0.00 0.00 0.00 0.00 0.00 0.00
0.14 0.21 0.27 0.50 0.57 0.51 0.63 0.88 1.24 2.32 2.09 0.61 0.25 0.17 0.35 0.48 0.29 0.16 0.15 0.14 0.21 0.24 0.40 0.32 0.17 0.24 0.22 0.15 0.26 0.25 0.15 0.10 0.07 0.06 0.10 0.20 0.16 0.20 0.10 0.01 0.02 0.00 0.00 0.00 0.00 0.00 0.00
0.08 0.20 0.26 0.41 0.56 0.56 0.55 0.59 0.86 1.43 2.19 1.31 0.49 0.37 0.52 0.61 0.37 0.22 0.19 0.24 0.32 0.42 0.41 0.40 0.30 0.24 0.26 0.21 0.19 0.13 0.05 0.02 0.02 0.03 0.08 0.09 0.10 0.08 0.04 0.01 0.00 0.00 0.00 0.00 0.00 0.00 0.00
0.11 0.14 0.19 0.35 0.60 0.64 0.56 0.50 0.49 0.82 1.44 2.09 1.06 0.47 0.44 0.60 0.50 0.19 0.24 0.32 0.38 0.46 0.51 0.46 0.36 0.27 0.18 0.19 0.17 0.12 0.02 0.00 0.00 0.00 0.00 0.03 0.02 0.02 0.01 0.01 0.01 0.00 0.00 0.00 0.02 0.03 0.00
0.09 0.15 0.18 0.29 0.53 0.75 0.65 0.51 0.49 0.56 1.04 1.84 1.41 0.74 0.70 1.04 0.89 0.38 0.38 0.44 0.43 0.48 0.51 0.41 0.35 0.27 0.16 0.12 0.09 0.04 0.00 0.00 0.00 0.00 0.00 0.00 0.00 0.01 0.00 0.00 0.01 0.02 0.01 0.02 0.04 0.03 0.00
0.06 0.11 0.18 0.25 0.40 0.65 0.74 0.50 0.46 0.67 1.13 1.65 1.27 0.77 0.67 0.96 0.92 0.46 0.37 0.38 0.38 0.38 0.40 0.34 0.26 0.21 0.10 0.05 0.03 0.01 0.00 0.00 0.00 0.00 0.00 0.00 0.00 0.00 0.00 0.00 0.01 0.00 0.00 0.00 0.00 0.00 0.00
0.07 0.10 0.17 0.24 0.31 0.48 0.65 0.62 0.56 0.76 1.11 1.07 0.85 0.73 0.54 0.85 0.95 0.46 0.31 0.32 0.28 0.23 0.21 0.22 0.14 0.02 0.01 0.01 0.01 0.00 0.00 0.00 0.00 0.00 0.00 0.00 0.00 0.00 0.00 0.00 0.00 0.00 0.00 0.00 0.00 0.00 0.00